Tracking 31027 objects as of 19-Jul-2025
HD Live streaming from Space Station
objects crossing your sky now

STARLINK-5540

Track STARLINK-5540 now!
10-day predictions
STARLINK-5540 is classified as:


NORAD ID: 56340
Int'l Code: 2023-058Z
Perigee: 568.6 km
Apogee: 571.7 km
Inclination: 97.7 °
Period: 95.9 minutes
Semi major axis: 6941 km
RCS: Unknown
Launch date: April 27, 2023
Source: United States (US)
Launch site: AIR FORCE WESTERN TEST RANGE (AFWTR)
Your satellite tracking list
PRISMA
Track 1 satellite(s)




NASA's NSSDC Master Catalog

Two Line Element Set (TLE):
1 56340U 23058Z   25199.49766449  .00000682  00000-0  57718-4 0  9999
2 56340  97.6563 200.6566 0002226 121.3292 238.8150 15.01261055122506
Source of the keplerian elements: AFSPC